Regional Weather Roundup
Issued by NWS

Home | Current Version | Previous Version | Graphics & Text | Print | Product List | Glossary On
Versions: 1 2 3 4 5 6 7 8 9 10 11 12 13 14 15 16 17 18 19 20 21 22 23 24 25 26 27 28 29 30 31 32 33 34 35 36 37 38 39 40 41 42 43 44 45 46 47 48 49 50
000
ASUS43 KDTX 230410
RWRMI
MICHIGAN HOURLY REGIONAL WEATHER ROUNDUP
NATIONAL WEATHER SERVICE DETROIT/PONTIAC MI
1200 AM EDT TUE SEP 23 2014

NOTE: "FAIR" INDICATES FEW OR NO CLOUDS BELOW 12,000 FEET WITH NO
SIGNIFICANT WEATHER AND/OR OBSTRUCTION TO VISIBILITY.

MIZ047>049-052>055-059>063-066>070-074>076-081>083-230500-
SOUTHEAST LOWER MICHIGAN

CITY           SKY/WX    TMP DP  RH WIND       PRES   REMARKS
ADRIAN         CLEAR     46  45  96 CALM      30.29R
ALMA           CLEAR     49  46  91 CALM      30.25S
ANN ARBOR      CLEAR     42  40  92 CALM      30.27R FOG
BAD AXE        CLEAR     47  45  93 CALM      30.22S
DETROIT CITY   CLEAR     53  45  74 CALM      30.26S
DETROIT        PTCLDY    49  45  86 S3        30.27R
FLINT          CLEAR     50  45  83 SW7       30.26R
GROSSE ILE     CLEAR     52  46  82 CALM      30.25S
HILLSDALE      CLEAR     43  43 100 CALM      30.28S
HOWELL         CLEAR     46  44  93 SW5       30.26S

CITY           SKY/WX    TMP DP  RH WIND       PRES   REMARKS
JACKSON        CLEAR     47  44  90 CALM      30.28R
LAMBERTVILLE   CLEAR     46  45  93 CALM      30.27S
LANSING        CLEAR     48  44  86 CALM      30.27S
LAPEER         NOT AVBL
MASON          CLEAR     45  43  93 CALM      30.27S
MONROE         CLEAR     46  45  93 CALM      30.26R
MT. CLEMENS    CLEAR     49  44  83 SW3       30.23S
PONTIAC        CLEAR     50  45  83 W3        30.25S
PORT HOPE        N/A     52  46  80 SW5       30.19S
PORT HURON     CLEAR     43  43 100 CALM      30.24S
TRI CITIES     CLEAR     50  46  86 W8        30.24S
YPSILANTI      CLEAR     53  47  79 SW3       30.27S
$$
MIZ043>046-050>051-056>058-064>065-071>073-077>080-230500-
SOUTHWEST LOWER MICHIGAN

CITY           SKY/WX    TMP DP  RH WIND       PRES   REMARKS
BATTLE CREEK   CLEAR     46  42  86 CALM      30.29R
BENTON HARBOR  CLEAR     45  44  97 CALM      30.27S
BIG RAPIDS     CLEAR     47  47 100 CALM      30.24S
COLDWATER      CLEAR     46  45  96 CALM      30.28S
HOLLAND        CLEAR     49  45  86 S3        30.27S
GRAND RAPIDS   CLEAR     49  45  86 S3        30.27S
KALAMAZOO      CLEAR     48  44  86 CALM      30.28S
MARSHALL       CLEAR     43  42  95 CALM      30.28R
MUSKEGON       CLEAR     50  46  86 SE3       30.26R
$$
MIZ016>042-230500-
NORTHERN LOWER MICHIGAN

CITY           SKY/WX    TMP DP  RH WIND       PRES   REMARKS
ALPENA         CLEAR     52  45  77 SW7       30.16S
BEAVER ISLAND  CLEAR     58  55  87 SW10G17   30.15R
BELLAIRE       CLEAR     52  47  83 S3        30.19R
CADILLAC       CLEAR     48  46  93 SW3       30.21S
CHARLEVOIX     CLEAR     55  50  84 SW8       30.19R
FRANKFORT      CLEAR     56  52  85 CALM      30.20S
GAYLORD        CLEAR     49  45  86 SW7       30.18R
GRAYLING       CLEAR     50  46  85 W6        30.20R
HARBOR SPRINGS CLEAR     57  49  76 SW5       30.16R
HOUGHTON LAKE  CLEAR     52  46  80 W10       30.21R
MANISTEE       CLEAR     46  43  87 SE3       30.22S
OSCODA         CLEAR     48  46  91 SW7       30.18S
PELLSTON       CLEAR     56  49  77 W5        30.15R
TRAVERSE CITY  CLEAR     54  46  74 SW5       30.18S
$$
MIZ007>008-015-230500-
EASTERN UPPER MICHIGAN

CITY           SKY/WX    TMP DP  RH WIND       PRES   REMARKS
KINROSS        CLEAR     52  50  93 SW3       30.12S
MACKINAC ISLAN CLEAR     58  54  86 W9        30.13S
NEWBERRY       CLEAR     50  49  97 SW8       30.11S
S. S. MARIE    CLEAR     51  48  89 SW6       30.11R
$$
MIZ004>006-011>014-085-230500-
CENTRAL UPPER MICHIGAN

CITY           SKY/WX    TMP DP  RH WIND       PRES   REMARKS
MANISTIQUE     CLEAR     55  50  84 W6        30.12S
ESCANABA       CLEAR     52  46  82 W5        30.15S
MENOMINEE      CLEAR     54  48  82 W5        30.17S
SAWYER-GWINN   CLEAR     52  47  83 SW6       30.12S
$$
MIZ001>003-009>011-084-230500-
WESTERN UPPER MICHIGAN

CITY           SKY/WX    TMP DP  RH WIND       PRES   REMARKS
IRON MOUNTAIN  CLEAR     50  46  86 CALM      30.14S
HOUGHTON       CLEAR     59  50  72 W12       30.08R
COPPER HARBOR    N/A     67  49  52 NW10G18   30.05R
IRONWOOD       CLEAR     54  52  94 SW6       30.14R
$$

ABBREVIATIONS USED IN REMARKS
   TC - TEMPERATURE IN CELSIUS
  WCI - WIND CHILL INDEX
   HX - HEAT INDEX
  VSB - VISIBILITY



USA.gov is the U.S. government's official web portal to all federal, state and local government web resources and services.